contact:dominique.lefevre@mio.osupytheas.fr, maurice.libes@osupytheas.fr, didier.mallarino@osupytheas.fr
Project:EMSO http://www.emso-fr.org/EMSO-France
Depth: 2436.0 m
Title:EMSO Ligure Ouest : Data MII capteur CSTAR
DateTime,Latitude,Longitude,Instrument_Serial,Reference_Counts,Signal_Counts,Corrected_Signal_raw_counts,Calculated_Beam_c_inverse_meters,Internal_thermistor_counts
DateTime,Latitude,Longitude,Instrument_Serial,Reference_Counts,Signal_Counts,Corrected_Signal_raw_counts,Calculated_Beam_c_inverse_meters,Internal_thermistor_counts
2023-06-18T00:01:36,42.805,6.029,CST-1368DR,4286,4689,11613,01.185,552
2023-06-18T00:04:38,42.805,6.029,CST-1368DR,4286,4691,11619,01.183,552
2023-06-18T00:07:39,42.805,6.029,CST-1368DR,4286,4692,11621,01.182,552
2023-06-18T00:10:41,42.805,6.029,CST-1368DR,4286,4691,11618,01.183,552
2023-06-18T00:13:42,42.805,6.029,CST-1368DR,4286,4685,11604,01.188,552
2023-06-18T00:16:44,42.805,6.029,CST-1368DR,4286,4691,11619,01.183,552
2023-06-18T00:19:46,42.805,6.029,CST-1368DR,4286,4691,11618,01.183,552
2023-06-18T00:22:47,42.805,6.029,CST-1368DR,4286,4686,11605,01.187,552
2023-06-18T00:25:49,42.805,6.029,CST-1368DR,4286,4693,11623,01.181,552
2023-06-18T00:28:50,42.805,6.029,CST-1368DR,4286,4691,11618,01.183,552
2023-06-18T00:31:52,42.805,6.029,CST-1368DR,4286,4687,11608,01.186,552
2023-06-18T00:34:53,42.805,6.029,CST-1368DR,4286,4684,11600,01.189,552
2023-06-18T00:37:55,42.805,6.029,CST-1368DR,4286,4699,11638,01.176,552
2023-06-18T00:40:57,42.805,6.029,CST-1368DR,4286,4692,11620,01.182,552
2023-06-18T00:43:58,42.805,6.029,CST-1368DR,4286,4683,11599,01.190,552
2023-06-18T00:47:00,42.805,6.029,CST-1368DR,4286,4690,11615,01.184,552
2023-06-18T00:50:01,42.805,6.029,CST-1368DR,4286,4687,11607,01.187,552
2023-06-18T00:53:03,42.805,6.029,CST-1368DR,4286,4684,11602,01.188,552
2023-06-18T00:56:05,42.805,6.029,CST-1368DR,4286,4686,11605,01.187,552
2023-06-18T00:59:06,42.805,6.029,CST-1368DR,4286,4690,11615,01.184,552
2023-06-18T01:02:08,42.805,6.029,CST-1368DR,4286,4686,11606,01.187,552
2023-06-18T01:05:09,42.805,6.029,CST-1368DR,4286,4683,11599,01.190,552
2023-06-18T01:08:11,42.805,6.029,CST-1368DR,4286,4687,11608,01.186,552
2023-06-18T01:11:12,42.805,6.029,CST-1368DR,4286,4688,11610,01.186,552
2023-06-18T01:14:14,42.805,6.029,CST-1368DR,4286,4685,11604,01.188,552
2023-06-18T01:17:16,42.805,6.029,CST-1368DR,4286,4684,11602,01.188,552
2023-06-18T01:20:17,42.805,6.029,CST-1368DR,4286,4688,11612,01.185,552
2023-06-18T01:23:19,42.805,6.029,CST-1368DR,4286,4685,11602,01.188,552
2023-06-18T01:26:20,42.805,6.029,CST-1368DR,4286,4692,11621,01.182,552
2023-06-18T01:29:22,42.805,6.029,CST-1368DR,4286,4695,11627,01.180,552
2023-06-18T01:32:23,42.805,6.029,CST-1368DR,4286,4686,11607,01.187,552
2023-06-18T01:35:25,42.805,6.029,CST-1368DR,4286,4685,11603,01.188,552
2023-06-18T01:38:27,42.805,6.029,CST-1368DR,4286,4683,11599,01.190,552
2023-06-18T01:41:28,42.805,6.029,CST-1368DR,4286,4687,11609,01.186,552
2023-06-18T01:44:30,42.805,6.029,CST-1368DR,4286,4682,11596,01.191,552
2023-06-18T01:47:31,42.805,6.029,CST-1368DR,4286,4682,11596,01.191,552
2023-06-18T01:50:33,42.805,6.029,CST-1368DR,4286,4683,11597,01.190,552
2023-06-18T01:53:35,42.805,6.029,CST-1368DR,4286,4685,11604,01.188,552
2023-06-18T01:56:36,42.805,6.029,CST-1368DR,4286,4685,11603,01.188,552
2023-06-18T01:59:38,42.805,6.029,CST-1368DR,4286,4685,11603,01.188,552
2023-06-18T02:02:39,42.805,6.029,CST-1368DR,4286,4696,11630,01.179,552
2023-06-18T02:05:41,42.805,6.029,CST-1368DR,4286,4698,11635,01.177,552
2023-06-18T02:08:42,42.805,6.029,CST-1368DR,4286,4689,11613,01.185,552
2023-06-18T02:11:44,42.805,6.029,CST-1368DR,4286,4690,11616,01.184,552
2023-06-18T02:14:46,42.805,6.029,CST-1368DR,4286,4690,11616,01.184,552
2023-06-18T02:17:47,42.805,6.029,CST-1368DR,4286,4691,11618,01.183,552
2023-06-18T02:20:49,42.805,6.029,CST-1368DR,4286,4699,11637,01.176,552
2023-06-18T02:23:50,42.805,6.029,CST-1368DR,4286,4694,11625,01.181,552
2023-06-18T02:26:52,42.805,6.029,CST-1368DR,4286,4689,11613,01.185,552
2023-06-18T02:29:54,42.805,6.029,CST-1368DR,4286,4694,11625,01.181,552
2023-06-18T02:32:55,42.805,6.029,CST-1368DR,4286,4695,11628,01.180,552
2023-06-18T02:35:57,42.805,6.029,CST-1368DR,4286,4694,11625,01.181,552
2023-06-18T02:38:58,42.805,6.029,CST-1368DR,4286,4695,11627,01.180,552
2023-06-18T02:42:00,42.805,6.029,CST-1368DR,4286,4693,11624,01.181,552
2023-06-18T02:45:01,42.805,6.029,CST-1368DR,4286,4693,11624,01.181,552
2023-06-18T02:48:03,42.805,6.029,CST-1368DR,4286,4694,11625,01.181,552
2023-06-18T02:51:05,42.805,6.029,CST-1368DR,4286,4695,11627,01.180,552
2023-06-18T02:54:06,42.805,6.029,CST-1368DR,4286,4696,11630,01.179,552
2023-06-18T02:57:08,42.805,6.029,CST-1368DR,4286,4699,11637,01.176,552
2023-06-18T03:00:09,42.805,6.029,CST-1368DR,4286,4697,11633,01.178,552
2023-06-18T03:03:11,42.805,6.029,CST-1368DR,4286,4693,11622,01.182,552
2023-06-18T03:06:12,42.805,6.029,CST-1368DR,4286,4703,11647,01.173,552
2023-06-18T03:09:14,42.805,6.029,CST-1368DR,4286,4694,11626,01.180,552
2023-06-18T03:12:16,42.805,6.029,CST-1368DR,4286,4698,11636,01.177,552
2023-06-18T03:15:17,42.805,6.029,CST-1368DR,4286,4699,11638,01.176,552
2023-06-18T03:18:19,42.805,6.029,CST-1368DR,4286,4701,11643,01.174,552
2023-06-18T03:21:20,42.805,6.029,CST-1368DR,4286,4694,11625,01.181,552
2023-06-18T03:24:22,42.805,6.029,CST-1368DR,4286,4699,11639,01.176,552
2023-06-18T03:27:24,42.805,6.029,CST-1368DR,4286,4705,11653,01.171,552
2023-06-18T03:30:25,42.805,6.029,CST-1368DR,4286,4695,11628,01.180,552
2023-06-18T03:33:27,42.805,6.029,CST-1368DR,4286,4704,11650,01.172,552
2023-06-18T03:36:28,42.805,6.029,CST-1368DR,4286,4693,11623,01.181,552
2023-06-18T03:39:30,42.805,6.029,CST-1368DR,4286,4698,11635,01.177,552
2023-06-18T03:42:31,42.805,6.029,CST-1368DR,4286,4701,11643,01.174,552
2023-06-18T03:45:33,42.805,6.029,CST-1368DR,4286,4701,11643,01.174,552
2023-06-18T03:48:35,42.805,6.029,CST-1368DR,4286,4696,11630,01.179,552
2023-06-18T03:51:36,42.805,6.029,CST-1368DR,4286,4698,11635,01.177,552
2023-06-18T03:54:38,42.805,6.029,CST-1368DR,4286,4693,11623,01.181,552
2023-06-18T03:57:39,42.805,6.029,CST-1368DR,4286,4699,11637,01.176,552
2023-06-18T04:00:41,42.805,6.029,CST-1368DR,4286,4699,11638,01.176,552
2023-06-18T04:03:42,42.805,6.029,CST-1368DR,4286,4698,11636,01.177,552
2023-06-18T04:06:44,42.805,6.029,CST-1368DR,4286,4702,11646,01.173,552
2023-06-18T04:09:46,42.805,6.029,CST-1368DR,4286,4698,11635,01.177,552
2023-06-18T04:12:47,42.805,6.029,CST-1368DR,4286,4700,11639,01.176,552
2023-06-18T04:15:49,42.805,6.029,CST-1368DR,4286,4705,11654,01.171,552
2023-06-18T04:18:50,42.805,6.029,CST-1368DR,4286,4698,11636,01.177,552
2023-06-18T04:21:52,42.805,6.029,CST-1368DR,4286,4698,11635,01.177,552
2023-06-18T04:24:54,42.805,6.029,CST-1368DR,4286,4697,11632,01.178,552
2023-06-18T04:27:55,42.805,6.029,CST-1368DR,4286,4703,11647,01.173,552
2023-06-18T04:30:57,42.805,6.029,CST-1368DR,4286,4694,11625,01.181,552
2023-06-18T04:33:58,42.805,6.029,CST-1368DR,4286,4696,11630,01.179,552
2023-06-18T04:37:00,42.805,6.029,CST-1368DR,4286,4717,11682,01.161,552
2023-06-18T04:40:01,42.805,6.029,CST-1368DR,4286,4704,11651,01.172,552
2023-06-18T04:43:03,42.805,6.029,CST-1368DR,4286,4700,11641,01.175,552
2023-06-18T04:46:05,42.805,6.029,CST-1368DR,4286,4701,11643,01.174,552
2023-06-18T04:49:06,42.805,6.029,CST-1368DR,4286,4699,11638,01.176,552
2023-06-18T04:52:08,42.805,6.029,CST-1368DR,4286,4703,11647,01.173,552
2023-06-18T04:55:09,42.805,6.029,CST-1368DR,4286,4706,11656,01.170,552
2023-06-18T04:58:11,42.805,6.029,CST-1368DR,4286,4700,11641,01.175,552
2023-06-18T05:01:12,42.805,6.029,CST-1368DR,4286,4710,11665,01.167,552
2023-06-18T05:04:14,42.805,6.029,CST-1368DR,4286,4699,11639,01.176,552
2023-06-18T05:07:16,42.805,6.029,CST-1368DR,4286,4703,11648,01.173,552
2023-06-18T05:10:17,42.805,6.029,CST-1368DR,4286,4703,11648,01.173,552
2023-06-18T05:13:19,42.805,6.029,CST-1368DR,4286,4702,11644,01.174,552
2023-06-18T05:16:20,42.805,6.029,CST-1368DR,4286,4699,11637,01.176,552
2023-06-18T05:19:22,42.805,6.029,CST-1368DR,4286,4700,11640,01.175,552
2023-06-18T05:22:24,42.805,6.029,CST-1368DR,4286,4702,11645,01.174,552
2023-06-18T05:25:25,42.805,6.029,CST-1368DR,4286,4707,11658,01.169,552
2023-06-18T05:28:27,42.805,6.029,CST-1368DR,4286,4703,11647,01.173,552
2023-06-18T05:31:28,42.805,6.029,CST-1368DR,4286,4705,11654,01.171,552
2023-06-18T05:34:30,42.805,6.029,CST-1368DR,4286,4707,11658,01.169,552
2023-06-18T05:37:31,42.805,6.029,CST-1368DR,4286,4707,11658,01.169,552
2023-06-18T05:40:33,42.805,6.029,CST-1368DR,4286,4713,11673,01.164,552
2023-06-18T05:43:35,42.805,6.029,CST-1368DR,4286,4710,11665,01.167,552
2023-06-18T05:46:36,42.805,6.029,CST-1368DR,4286,4717,11682,01.161,552
2023-06-18T05:49:38,42.805,6.029,CST-1368DR,4286,4708,11661,01.168,552
2023-06-18T05:52:39,42.805,6.029,CST-1368DR,4286,4708,11661,01.168,552
2023-06-18T05:55:41,42.805,6.029,CST-1368DR,4286,4704,11649,01.172,552
2023-06-18T05:58:42,42.805,6.029,CST-1368DR,4286,4706,11655,01.170,552
2023-06-18T06:01:44,42.805,6.029,CST-1368DR,4286,4707,11657,01.170,552
2023-06-18T06:04:46,42.805,6.029,CST-1368DR,4286,4700,11640,01.175,552
2023-06-18T06:07:47,42.805,6.029,CST-1368DR,4286,4702,11646,01.173,552
2023-06-18T06:10:49,42.805,6.029,CST-1368DR,4286,4701,11644,01.174,552
2023-06-18T06:13:50,42.805,6.029,CST-1368DR,4286,4706,11655,01.170,552
2023-06-18T06:16:52,42.805,6.029,CST-1368DR,4286,4703,11648,01.173,552
2023-06-18T06:19:54,42.805,6.029,CST-1368DR,4286,4709,11664,01.167,552
2023-06-18T06:22:55,42.805,6.029,CST-1368DR,4286,4703,11648,01.173,552
2023-06-18T06:25:57,42.805,6.029,CST-1368DR,4286,4713,11672,01.164,552
2023-06-18T06:28:58,42.805,6.029,CST-1368DR,4286,4711,11669,01.165,552
2023-06-18T06:32:02,42.805,6.029,CST-1368DR,4286,4707,11657,01.170,552
2023-06-18T06:35:04,42.805,6.029,CST-1368DR,4286,4702,11646,01.173,552
2023-06-18T06:38:05,42.805,6.029,CST-1368DR,4286,4705,11652,01.171,552
2023-06-18T06:41:07,42.805,6.029,CST-1368DR,4286,4706,11654,01.171,552
2023-06-18T06:44:09,42.805,6.029,CST-1368DR,4286,4711,11667,01.166,552
2023-06-18T06:47:10,42.805,6.029,CST-1368DR,4286,4707,11657,01.170,552
2023-06-18T06:50:12,42.805,6.029,CST-1368DR,4286,4705,11652,01.171,552
2023-06-18T06:53:13,42.805,6.029,CST-1368DR,4286,4709,11662,01.168,552
2023-06-18T06:56:15,42.805,6.029,CST-1368DR,4286,4712,11671,01.165,552
2023-06-18T06:59:16,42.805,6.029,CST-1368DR,4286,4711,11667,01.166,552
2023-06-18T07:02:18,42.805,6.029,CST-1368DR,4286,4707,11658,01.169,552
2023-06-18T07:05:20,42.805,6.029,CST-1368DR,4286,4710,11665,01.167,552
2023-06-18T07:08:21,42.805,6.029,CST-1368DR,4286,4702,11646,01.173,552
2023-06-18T07:11:23,42.805,6.029,CST-1368DR,4286,4706,11654,01.171,552
2023-06-18T07:14:24,42.805,6.029,CST-1368DR,4286,4702,11646,01.173,552
2023-06-18T07:17:26,42.805,6.029,CST-1368DR,4286,4706,11656,01.170,552
2023-06-18T07:20:27,42.805,6.029,CST-1368DR,4286,4706,11655,01.170,552
2023-06-18T07:23:29,42.805,6.029,CST-1368DR,4286,4704,11650,01.172,552
2023-06-18T07:26:31,42.805,6.029,CST-1368DR,4286,4720,11690,01.158,552
2023-06-18T07:29:32,42.805,6.029,CST-1368DR,4286,4711,11668,01.166,552
2023-06-18T07:32:34,42.805,6.029,CST-1368DR,4286,4703,11649,01.172,552
2023-06-18T07:35:35,42.805,6.029,CST-1368DR,4286,4718,11686,01.160,552
2023-06-18T07:38:37,42.805,6.029,CST-1368DR,4286,4711,11669,01.165,552
2023-06-18T07:41:39,42.805,6.029,CST-1368DR,4286,4712,11669,01.165,552
2023-06-18T07:44:40,42.805,6.029,CST-1368DR,4286,4715,11677,01.163,552
2023-06-18T07:47:42,42.805,6.029,CST-1368DR,4286,4706,11656,01.170,552
2023-06-18T07:50:43,42.805,6.029,CST-1368DR,4286,4713,11674,01.164,552
2023-06-18T07:53:45,42.805,6.029,CST-1368DR,4286,4713,11673,01.164,552
2023-06-18T07:56:46,42.805,6.029,CST-1368DR,4286,4710,11664,01.167,552
2023-06-18T07:59:48,42.805,6.029,CST-1368DR,4286,4707,11659,01.169,552
2023-06-18T08:02:50,42.805,6.029,CST-1368DR,4286,4704,11651,01.172,552
2023-06-18T08:05:51,42.805,6.029,CST-1368DR,4286,4705,11654,01.171,552
2023-06-18T08:08:53,42.805,6.029,CST-1368DR,4286,4706,11654,01.171,552
2023-06-18T08:11:54,42.805,6.029,CST-1368DR,4286,4710,11666,01.166,552
2023-06-18T08:14:56,42.805,6.029,CST-1368DR,4286,4712,11669,01.165,552
2023-06-18T08:17:57,42.805,6.029,CST-1368DR,4286,4714,11675,01.163,552
2023-06-18T08:20:59,42.805,6.029,CST-1368DR,4286,4713,11672,01.164,552
2023-06-18T08:24:01,42.805,6.029,CST-1368DR,4286,4710,11665,01.167,552
2023-06-18T08:27:02,42.805,6.029,CST-1368DR,4286,4713,11674,01.164,552
2023-06-18T08:30:07,42.805,6.029,CST-1368DR,4286,4708,11660,01.169,552
2023-06-18T08:33:05,42.805,6.029,CST-1368DR,4286,4705,11653,01.171,552
2023-06-18T08:36:07,42.805,6.029,CST-1368DR,4286,4708,11661,01.168,552
2023-06-18T08:39:08,42.805,6.029,CST-1368DR,4286,4706,11656,01.170,552
2023-06-18T08:42:10,42.805,6.029,CST-1368DR,4286,4716,11681,01.161,552
2023-06-18T08:45:11,42.805,6.029,CST-1368DR,4286,4707,11657,01.170,552
2023-06-18T08:48:13,42.805,6.029,CST-1368DR,4286,4706,11655,01.170,552
2023-06-18T08:51:14,42.805,6.029,CST-1368DR,4286,4708,11660,01.169,552
2023-06-18T08:54:16,42.805,6.029,CST-1368DR,4286,4709,11662,01.168,552
2023-06-18T08:57:18,42.805,6.029,CST-1368DR,4286,4705,11653,01.171,552
2023-06-18T09:00:19,42.805,6.029,CST-1368DR,4286,4709,11662,01.168,552
2023-06-18T09:03:21,42.805,6.029,CST-1368DR,4286,4707,11657,01.170,552
2023-06-18T09:06:22,42.805,6.029,CST-1368DR,4286,4708,11661,01.168,552
2023-06-18T09:09:24,42.805,6.029,CST-1368DR,4286,4706,11656,01.170,552
2023-06-18T09:12:26,42.805,6.029,CST-1368DR,4286,4706,11656,01.170,552
2023-06-18T09:15:27,42.805,6.029,CST-1368DR,4286,4703,11647,01.173,552
2023-06-18T09:18:29,42.805,6.029,CST-1368DR,4286,4712,11671,01.165,552
2023-06-18T09:21:30,42.805,6.029,CST-1368DR,4286,4704,11649,01.172,552
2023-06-18T09:24:32,42.805,6.029,CST-1368DR,4286,4702,11646,01.173,552
2023-06-18T09:27:33,42.805,6.029,CST-1368DR,4286,4712,11670,01.165,552
2023-06-18T09:30:35,42.805,6.029,CST-1368DR,4286,4708,11660,01.169,552
2023-06-18T09:33:37,42.805,6.029,CST-1368DR,4285,4706,11659,01.169,552
2023-06-18T09:36:38,42.805,6.029,CST-1368DR,4286,4708,11661,01.168,552
2023-06-18T09:39:40,42.805,6.029,CST-1368DR,4286,4709,11663,01.167,552
2023-06-18T09:42:41,42.805,6.029,CST-1368DR,4286,4709,11662,01.168,552
2023-06-18T09:45:43,42.805,6.029,CST-1368DR,4286,4707,11658,01.169,552
2023-06-18T09:48:44,42.805,6.029,CST-1368DR,4286,4709,11662,01.168,552
2023-06-18T09:51:46,42.805,6.029,CST-1368DR,4286,4710,11665,01.167,552
2023-06-18T09:54:48,42.805,6.029,CST-1368DR,4286,4707,11657,01.170,552
2023-06-18T09:57:49,42.805,6.029,CST-1368DR,4286,4710,11665,01.167,552
2023-06-18T10:00:51,42.805,6.029,CST-1368DR,4286,4709,11662,01.168,552
2023-06-18T10:03:52,42.805,6.029,CST-1368DR,4286,4713,11672,01.164,552
2023-06-18T10:06:54,42.805,6.029,CST-1368DR,4286,4709,11662,01.168,552
2023-06-18T10:09:56,42.805,6.029,CST-1368DR,4286,4707,11658,01.169,552
2023-06-18T10:12:57,42.805,6.029,CST-1368DR,4285,4709,11666,01.166,552
2023-06-18T10:15:59,42.805,6.029,CST-1368DR,4286,4715,11678,01.162,552
2023-06-18T10:19:00,42.805,6.029,CST-1368DR,4286,4707,11659,01.169,552
2023-06-18T10:22:02,42.805,6.029,CST-1368DR,4286,4712,11670,01.165,552
2023-06-18T10:25:03,42.805,6.029,CST-1368DR,4286,4721,11691,01.158,552
2023-06-18T10:28:05,42.805,6.029,CST-1368DR,4286,4708,11660,01.169,552
2023-06-18T10:31:08,42.805,6.029,CST-1368DR,4286,4707,11659,01.169,552
2023-06-18T10:34:09,42.805,6.029,CST-1368DR,4286,4721,11691,01.158,552
2023-06-18T10:37:11,42.805,6.029,CST-1368DR,4286,4712,11670,01.165,552
2023-06-18T10:40:12,42.805,6.029,CST-1368DR,4286,4720,11690,01.158,552
2023-06-18T10:43:14,42.805,6.029,CST-1368DR,4286,4717,11682,01.161,552
2023-06-18T10:46:15,42.805,6.029,CST-1368DR,4286,4709,11664,01.167,552
2023-06-18T10:49:17,42.805,6.029,CST-1368DR,4286,4713,11674,01.164,552
2023-06-18T10:52:19,42.805,6.029,CST-1368DR,4286,4723,11698,01.156,552
2023-06-18T10:55:20,42.805,6.029,CST-1368DR,4286,4715,11678,01.162,552
2023-06-18T10:58:22,42.805,6.029,CST-1368DR,4286,4709,11662,01.168,552
2023-06-18T11:01:23,42.805,6.029,CST-1368DR,4286,4711,11667,01.166,552
2023-06-18T11:04:25,42.805,6.029,CST-1368DR,4285,4706,11657,01.170,552
2023-06-18T11:07:27,42.805,6.029,CST-1368DR,4286,4714,11675,01.163,552
2023-06-18T11:10:28,42.805,6.029,CST-1368DR,4286,4711,11669,01.165,552
2023-06-18T11:13:30,42.805,6.029,CST-1368DR,4286,4711,11667,01.166,552
2023-06-18T11:16:31,42.805,6.029,CST-1368DR,4286,4708,11660,01.169,552
2023-06-18T11:19:33,42.805,6.029,CST-1368DR,4286,4707,11657,01.170,552
2023-06-18T11:22:34,42.805,6.029,CST-1368DR,4286,4709,11663,01.167,552
2023-06-18T11:25:36,42.805,6.029,CST-1368DR,4285,4706,11657,01.170,552
2023-06-18T11:28:38,42.805,6.029,CST-1368DR,4286,4705,11654,01.171,552
2023-06-18T11:31:39,42.805,6.029,CST-1368DR,4286,4719,11687,01.159,552
2023-06-18T11:34:41,42.805,6.029,CST-1368DR,4285,4707,11659,01.169,552
2023-06-18T11:37:42,42.805,6.029,CST-1368DR,4286,4710,11666,01.166,552
2023-06-18T11:40:44,42.805,6.029,CST-1368DR,4285,4706,11659,01.169,552
2023-06-18T11:43:45,42.805,6.029,CST-1368DR,4286,4708,11661,01.168,552
2023-06-18T11:46:47,42.805,6.029,CST-1368DR,4286,4710,11664,01.167,552
2023-06-18T11:49:49,42.805,6.029,CST-1368DR,4285,4707,11659,01.169,552
2023-06-18T11:52:50,42.805,6.029,CST-1368DR,4285,4706,11659,01.169,552
2023-06-18T11:55:52,42.805,6.029,CST-1368DR,4285,4712,11672,01.164,552
2023-06-18T11:58:53,42.805,6.029,CST-1368DR,4285,4716,11684,01.160,552
2023-06-18T12:01:55,42.805,6.029,CST-1368DR,4286,4714,11675,01.163,552
2023-06-18T12:04:57,42.805,6.029,CST-1368DR,4286,4713,11672,01.164,552
2023-06-18T12:07:58,42.805,6.029,CST-1368DR,4286,4718,11685,01.160,552
2023-06-18T12:11:00,42.805,6.029,CST-1368DR,4286,4717,11683,01.161,552
2023-06-18T12:14:01,42.805,6.029,CST-1368DR,4286,4715,11678,01.162,552
2023-06-18T12:17:03,42.805,6.029,CST-1368DR,4286,4711,11669,01.165,552
2023-06-18T12:20:04,42.805,6.029,CST-1368DR,4285,4709,11666,01.166,552
2023-06-18T12:23:06,42.805,6.029,CST-1368DR,4285,4709,11664,01.167,552
2023-06-18T12:26:08,42.805,6.029,CST-1368DR,4286,4717,11683,01.161,552
2023-06-18T12:29:09,42.805,6.029,CST-1368DR,4286,4712,11671,01.165,552
2023-06-18T12:32:11,42.805,6.029,CST-1368DR,4285,4710,11667,01.166,552
2023-06-18T12:35:12,42.805,6.029,CST-1368DR,4285,4708,11663,01.167,552
2023-06-18T12:38:14,42.805,6.029,CST-1368DR,4286,4711,11669,01.165,552
2023-06-18T12:41:15,42.805,6.029,CST-1368DR,4285,4709,11666,01.166,552
2023-06-18T12:44:17,42.805,6.029,CST-1368DR,4285,4707,11661,01.168,552
2023-06-18T12:47:19,42.805,6.029,CST-1368DR,4285,4710,11667,01.166,552
2023-06-18T12:50:20,42.805,6.029,CST-1368DR,4285,4714,11678,01.162,552
2023-06-18T12:53:22,42.805,6.029,CST-1368DR,4285,4710,11667,01.166,552
2023-06-18T12:56:23,42.805,6.029,CST-1368DR,4286,4707,11659,01.169,552
2023-06-18T12:59:25,42.805,6.029,CST-1368DR,4285,4710,11669,01.165,552
2023-06-18T13:02:27,42.805,6.029,CST-1368DR,4285,4709,11666,01.166,552
2023-06-18T13:05:28,42.805,6.029,CST-1368DR,4285,4710,11667,01.166,552
2023-06-18T13:08:30,42.805,6.029,CST-1368DR,4285,4713,11676,01.163,552
2023-06-18T13:11:31,42.805,6.029,CST-1368DR,4285,4718,11689,01.159,552
2023-06-18T13:14:33,42.805,6.029,CST-1368DR,4285,4711,11669,01.165,552
2023-06-18T13:17:34,42.805,6.029,CST-1368DR,4285,4709,11665,01.167,552
2023-06-18T13:20:36,42.805,6.029,CST-1368DR,4285,4711,11671,01.165,552
2023-06-18T13:23:38,42.805,6.029,CST-1368DR,4285,4716,11682,01.161,552
2023-06-18T13:26:39,42.805,6.029,CST-1368DR,4285,4707,11661,01.168,552
2023-06-18T13:29:41,42.805,6.029,CST-1368DR,4285,4709,11666,01.166,552
2023-06-18T13:32:42,42.805,6.029,CST-1368DR,4285,4711,11671,01.165,552
2023-06-18T13:35:44,42.805,6.029,CST-1368DR,4285,4712,11674,01.164,552
2023-06-18T13:38:45,42.805,6.029,CST-1368DR,4285,4709,11665,01.167,552
2023-06-18T13:41:47,42.805,6.029,CST-1368DR,4285,4710,11667,01.166,552
2023-06-18T13:44:49,42.805,6.029,CST-1368DR,4286,4710,11666,01.166,552
2023-06-18T13:47:50,42.805,6.029,CST-1368DR,4286,4721,11693,01.157,552
2023-06-18T13:50:52,42.805,6.029,CST-1368DR,4286,4716,11679,01.162,552
2023-06-18T13:53:53,42.805,6.029,CST-1368DR,4285,4711,11671,01.165,552
2023-06-18T13:56:55,42.805,6.029,CST-1368DR,4285,4707,11659,01.169,552
2023-06-18T13:59:57,42.805,6.029,CST-1368DR,4285,4707,11661,01.168,552
2023-06-18T14:02:58,42.805,6.029,CST-1368DR,4285,4713,11676,01.163,552
2023-06-18T14:06:00,42.805,6.029,CST-1368DR,4285,4712,11673,01.164,552
2023-06-18T14:09:01,42.805,6.029,CST-1368DR,4286,4709,11662,01.168,552
2023-06-18T14:12:03,42.805,6.029,CST-1368DR,4285,4707,11659,01.169,552
2023-06-18T14:15:04,42.805,6.029,CST-1368DR,4285,4709,11665,01.167,552
2023-06-18T14:18:06,42.805,6.029,CST-1368DR,4285,4706,11659,01.169,552
2023-06-18T14:21:08,42.805,6.029,CST-1368DR,4285,4711,11669,01.165,552
2023-06-18T14:24:09,42.805,6.029,CST-1368DR,4285,4709,11664,01.167,552
2023-06-18T14:27:11,42.805,6.029,CST-1368DR,4285,4712,11672,01.164,552
2023-06-18T14:30:14,42.805,6.029,CST-1368DR,4285,4717,11685,01.160,552
2023-06-18T14:33:16,42.805,6.029,CST-1368DR,4285,4713,11676,01.163,552
2023-06-18T14:36:17,42.805,6.029,CST-1368DR,4285,4709,11665,01.167,552
2023-06-18T14:39:19,42.805,6.029,CST-1368DR,4285,4708,11664,01.167,552
2023-06-18T14:42:20,42.805,6.029,CST-1368DR,4285,4716,11682,01.161,552
2023-06-18T14:45:22,42.805,6.029,CST-1368DR,4285,4713,11674,01.164,552
2023-06-18T14:48:24,42.805,6.029,CST-1368DR,4285,4709,11665,01.167,552
2023-06-18T14:51:25,42.805,6.029,CST-1368DR,4285,4709,11666,01.166,552
2023-06-18T14:54:27,42.805,6.029,CST-1368DR,4285,4708,11664,01.167,552
2023-06-18T14:57:28,42.805,6.029,CST-1368DR,4285,4720,11692,01.158,552
2023-06-18T15:00:30,42.805,6.029,CST-1368DR,4285,4712,11673,01.164,552
2023-06-18T15:03:31,42.805,6.029,CST-1368DR,4285,4705,11654,01.171,552
2023-06-18T15:06:33,42.805,6.029,CST-1368DR,4285,4725,11704,01.153,552
2023-06-18T15:09:35,42.805,6.029,CST-1368DR,4285,4712,11672,01.164,552
2023-06-18T15:12:36,42.805,6.029,CST-1368DR,4285,4710,11667,01.166,552
2023-06-18T15:15:38,42.805,6.029,CST-1368DR,4285,4708,11663,01.167,552
2023-06-18T15:18:39,42.805,6.029,CST-1368DR,4285,4708,11663,01.167,552
2023-06-18T15:21:41,42.805,6.029,CST-1368DR,4285,4713,11675,01.163,552
2023-06-18T15:24:43,42.805,6.029,CST-1368DR,4285,4710,11667,01.166,552
2023-06-18T15:27:44,42.805,6.029,CST-1368DR,4285,4711,11671,01.165,552
2023-06-18T15:30:46,42.805,6.029,CST-1368DR,4285,4707,11661,01.168,552
2023-06-18T15:33:47,42.805,6.029,CST-1368DR,4285,4708,11663,01.167,552
2023-06-18T15:36:49,42.805,6.029,CST-1368DR,4285,4711,11669,01.165,552
2023-06-18T15:39:50,42.805,6.029,CST-1368DR,4285,4710,11668,01.166,552
2023-06-18T15:42:52,42.805,6.029,CST-1368DR,4285,4707,11661,01.168,552
2023-06-18T15:45:54,42.805,6.029,CST-1368DR,4285,4707,11659,01.169,552
2023-06-18T15:48:55,42.805,6.029,CST-1368DR,4285,4709,11664,01.167,552
2023-06-18T15:51:57,42.805,6.029,CST-1368DR,4285,4707,11661,01.168,552
2023-06-18T15:54:58,42.805,6.029,CST-1368DR,4285,4714,11677,01.163,552
2023-06-18T15:58:00,42.805,6.029,CST-1368DR,4285,4707,11659,01.169,552
2023-06-18T16:01:01,42.805,6.029,CST-1368DR,4285,4710,11668,01.166,552
2023-06-18T16:04:03,42.805,6.029,CST-1368DR,4285,4709,11666,01.166,552
2023-06-18T16:07:05,42.805,6.029,CST-1368DR,4285,4717,11686,01.160,552
2023-06-18T16:10:06,42.805,6.029,CST-1368DR,4285,4710,11667,01.166,552
2023-06-18T16:13:08,42.805,6.029,CST-1368DR,4285,4711,11669,01.165,552
2023-06-18T16:16:09,42.805,6.029,CST-1368DR,4285,4707,11661,01.168,552
2023-06-18T16:19:11,42.805,6.029,CST-1368DR,4285,4710,11667,01.166,552
2023-06-18T16:22:13,42.805,6.029,CST-1368DR,4285,4708,11664,01.167,552
2023-06-18T16:25:14,42.805,6.029,CST-1368DR,4285,4716,11682,01.161,552
2023-06-18T16:28:16,42.805,6.029,CST-1368DR,4285,4710,11667,01.166,552
2023-06-18T16:31:17,42.805,6.029,CST-1368DR,4285,4707,11661,01.168,552
2023-06-18T16:34:18,42.805,6.029,CST-1368DR,4285,4710,11667,01.166,552
2023-06-18T16:37:20,42.805,6.029,CST-1368DR,4285,4709,11665,01.167,552